Portada
METAR-TAF:

METAR-TAF

Aeroports :

Jesaq, Iran

latitud: 26-38N, longitud: 057-46E, altitud: 3 m

Observació

L'informe es va fer fa 2 hores i 37 minuts, a les 18:00 UTC
Vent 8 kt del Nord-Oest
Temperatura 33°C
Humitat 53%
Pressió 1003 hPa
Visibilitat: 6000 m

METAR: OIZJ 011800Z 32008KT 6000 NSC 33/22 Q1003

Hora: 01:07 (20:37 UTC)


TAF: manca

Observacions i pronòstics meteorològics de més de 4000 aeroports (METAR i TAF).

Les estacions disponibles són els punts grocs i vermells al mapa.

Posi el ratolí al punt desitjat per veure el nom de l'estació.

Feu clic per veure les observacions i els pronòstics meteorològics.

Per canviar el mapa: feu clic els botons verds amb una creu de color negre per apropar; al botó verd amb un guió per allunyar la imatge; o en les fletxes verdes per a mapes adjacents.


METAR-TAF: